Home   Weather   Jerome   Past weeks
Flag for USA

Past Weather in Jerome, Idaho, USA — Yesterday and Last 2 Weeks

Now
79 °F

Sunny.


Feels Like: 78 °F
Forecast: 79 / 54 °F
Wind: 7 mph from Northeast

Location: Jerome County Airport

Current Time: Jun 26, 2019 at 6:58:55 pm

Latest Report: Jun 26, 2019 at 5:53 pm


Visibility: 10 mi

Pressure: 29.75 "Hg (26.10 "Hg at 1147m altitude)

Humidity: 25%

Dew Point: 40 °F

Location of JeromeLocation

Past Weather in Jerome — Graph

°F

Jerome Temperature Yesterday

Maximum temperature yesterday: 82 °F (at 2:53 pm)
Minimum temperature yesterday: 56 °F (at 5:53 am)
Average temperature yesterday: 69 °F

High & Low Weather Summary for the Past Weeks

 TemperatureHumidityPressure
High85 °F (Jun 13, 4:53 pm)82% (Jun 22, 4:53 am)30.16 "Hg (Jun 22, 4:53 am)
Low40 °F (Jun 21, 4:53 am)16% (Jun 15, 3:53 pm)29.66 "Hg (Jun 25, 7:53 pm)
Average66 °F42%29.89 "Hg
* Reported Jun 11 5:53 pm — Jun 26 5:53 pm, Jerome. Weather by CustomWeather, © 2019

Note: Actual official high and low records may vary slightly from our data, if they occured in-between our weather recording intervals... More about our weather records

Advertising

Jerome Weather History for the Previous 24 Hours

Scroll right to see more
 ConditionsComfort  
Time TempWeatherWind HumidityBarometerVisibility
5:53 pm
Wed, Jun 26
79 °FSunny.7 mph25%29.75 "Hg10 mi
4:53 pm80 °FSunny.8 mph20%29.77 "Hg10 mi
3:53 pm81 °FSunny.7 mph21%29.78 "Hg10 mi
2:53 pm78 °FSunny.9 mph29%29.79 "Hg10 mi
1:53 pm73 °FSunny.8 mph40%29.81 "Hg10 mi
12:53 pm71 °FSunny.7 mph38%29.82 "Hg10 mi
11:53 am69 °FSunny.7 mph45%29.82 "Hg10 mi
10:53 am68 °FSunny.6 mph45%29.81 "Hg10 mi
9:53 am64 °FSunny.3 mph50%29.83 "Hg10 mi
8:53 am62 °FSunny.No wind52%29.83 "Hg10 mi
7:53 am60 °FSunny.3 mph56%29.81 "Hg10 mi
6:53 am58 °FClear.5 mph60%29.79 "Hg10 mi
5:53 am58 °FClear.6 mph60%29.78 "Hg10 mi
4:53 am58 °FClear.3 mph60%29.77 "Hg10 mi
3:53 am58 °FClear.6 mph60%29.75 "Hg10 mi
2:53 am59 °FClear.7 mph58%29.74 "Hg10 mi
1:53 am60 °FClear.7 mph56%29.74 "Hg10 mi
12:53 am62 °FClear.5 mph54%29.74 "Hg10 mi
11:53 pm
Tue, Jun 25
65 °FClear.3 mph47%29.73 "Hg10 mi
10:53 pm69 °FClear.6 mph36%29.73 "Hg10 mi
9:53 pm67 °FSunny.7 mph49%29.71 "Hg10 mi
8:53 pm72 °FSunny.7 mph40%29.68 "Hg10 mi
7:53 pm80 °FSunny.6 mph28%29.66 "Hg10 mi
6:53 pm81 °FSunny.6 mph22%29.67 "Hg10 mi
Weather by CustomWeather, © 2019

See weather overview